This is the latest recevied weather packets stored in our database for station/object DAX206-13. If no packets are shown the sender has not sent any weather packets the latest 10 day(s).
| Time | Temp. | Humidity | Pressure | Rain* | Wind** | Luminosity | Snow |
|---|---|---|---|---|---|---|---|
| 1788298393 | 14.44° C | 87% | 1022 hPa | 0 mm | - | 0 W/m² | - |
| 1788297493 | 14.44° C | 87% | 1022.3 hPa | 0 mm | - | 0 W/m² | - |
| 1788296593 | 14.44° C | 87% | 1022.5 hPa | 0 mm | - | 0 W/m² | - |
| 1788295693 | 14.44° C | 87% | 1022.3 hPa | 0 mm | - | 0 W/m² | - |
| 1788294793 | 15° C | 87% | 1022.3 hPa | 0 mm | - | 0 W/m² | - |
| 1788293893 | 14.44° C | 87% | 1021.7 hPa | 0 mm | - | 0 W/m² | - |
| 1788292993 | 14.44° C | 86% | 1022.1 hPa | 0 mm | - | 0 W/m² | - |
| 1788292093 | 15° C | 86% | 1022.4 hPa | 0 mm | - | 0 W/m² | - |
| 1788291193 | 15° C | 86% | 1022.1 hPa | 0 mm | - | 0 W/m² | - |
| 1788290293 | 15° C | 86% | 1022 hPa | 0 mm | - | 0 W/m² | - |
| 1788289393 | 15° C | 85% | 1021.7 hPa | 0 mm | - | 0 W/m² | - |
| 1788288493 | 15° C | 85% | 1021.7 hPa | 0 mm | - | 0 W/m² | - |
| 1788287593 | 15° C | 85% | 1021.4 hPa | 0 mm | - | 0 W/m² | - |
| 1788286693 | 15.56° C | 84% | 1021.1 hPa | 0 mm | - | 0 W/m² | - |
| 1788284893 | 15.56° C | 82% | 1020.9 hPa | 0 mm | - | 4 W/m² | - |
| 1788283993 | 16.11° C | 81% | 1021 hPa | 0 mm | - | 9 W/m² | - |
| 1788283093 | 16.67° C | 79% | 1021.1 hPa | 0 mm | - | 19 W/m² | - |
| 1788282193 | 16.67° C | 76% | 1021.1 hPa | 0 mm | - | 12 W/m² | - |
| 1788281293 | 17.22° C | 75% | 1021 hPa | 0 mm | - | 36 W/m² | - |
| 1788280393 | 17.22° C | 75% | 1021.2 hPa | 0 mm | - | 29 W/m² | - |
| 1788279493 | 17.22° C | 75% | 1021.3 hPa | 0 mm | - | 26 W/m² | - |
| 1788278593 | 17.78° C | 75% | 1020.7 hPa | 0 mm | - | 29 W/m² | - |
| 1788277693 | 17.78° C | 74% | 1020.8 hPa | 0 mm | - | 72 W/m² | - |
| 1788276793 | 18.33° C | 74% | 1020.8 hPa | 0 mm | - | 99 W/m² | - |
| 1788275893 | 18.33° C | 75% | 1020.8 hPa | 0 mm | - | 160 W/m² | - |
* Rain latest hour (hover to see other rain measurements)
** Current wind speed in m/s (hover to see current wind gust speed)